• In Hungary
  • List of Countries
  • For 7 days
  • Water Temperature
  • Satellite Maps
  • Weather Map
  • News
  • Weather Widgets
  • user-avatar
    Login

    Hourly Weather Ciolki

    Today, 19 February, Monday

    Time Temperature Precipitation Wind Pressure Humidity
    00:00 -5°C° 0 mm 2 mps 750 mmHg 84%
    01:00 -5°C° 0 mm 2 mps 750 mmHg 85%
    02:00 -4°C° 0 mm 1 mps 750 mmHg 85%
    03:00 -4°C° 0 mm 1 mps 750 mmHg 86%
    04:00 -4°C° 0 mm 1 mps 750 mmHg 86%
    05:00 -4°C° 0 mm 1 mps 750 mmHg 87%
    06:00 -4°C° 0 mm 1 mps 750 mmHg 87%
    07:00 -4°C° 0 mm 1 mps 750 mmHg 87%
    08:00 -6°C° 0 mm 1 mps 750 mmHg 88%
    09:00 -3°C° 0 mm 1 mps 750 mmHg 84%
    10:00 -2°C° 0 mm 1 mps 750 mmHg 81%
    11:00 -1°C° 0 mm 1 mps 750 mmHg 77%
    12:00 -1°C° 0 mm 1 mps 749 mmHg 76%
    13:00 0°C° 0 mm 1 mps 749 mmHg 75%
    14:00 0°C° 0 mm 1 mps 749 mmHg 73%
    15:00 0°C° 0 mm 1 mps 749 mmHg 76%
    16:00 0°C° 0 mm 1 mps 749 mmHg 78%
    17:00 -1°C° 0 mm 1 mps 749 mmHg 80%
    18:00 -1°C° 0 mm 1 mps 748 mmHg 82%
    19:00 -2°C° 0 mm 1 mps 748 mmHg 84%
    20:00 -3°C° 0 mm 1 mps 748 mmHg 85%
    21:00 -3°C° 0 mm 1 mps 748 mmHg 86%
    22:00 -3°C° 0 mm 1 mps 748 mmHg 87%
    23:00 -3°C° 0 mm 1 mps 748 mmHg 87%

    Tomorrow, 20 February, Tuesday

    Time Temperature Precipitation Wind Pressure Humidity
    00:00 -4°C° 0 mm 1 mps 748 mmHg 87%
    01:00 -6°C° 0 mm 2 mps 748 mmHg 88%
    02:00 -6°C° 0 mm 2 mps 748 mmHg 88%
    03:00 -6°C° 0 mm 2 mps 748 mmHg 88%
    04:00 -7°C° 0 mm 2 mps 748 mmHg 88%
    05:00 -7°C° 0 mm 2 mps 747 mmHg 88%
    06:00 -7°C° 0 mm 2 mps 747 mmHg 88%
    07:00 -7°C° 0 mm 2 mps 747 mmHg 88%
    08:00 -8°C° 0 mm 3 mps 747 mmHg 88%
    09:00 -7°C° 0 mm 3 mps 747 mmHg 85%
    10:00 -6°C° 0 mm 3 mps 748 mmHg 82%
    11:00 -5°C° 0 mm 3 mps 748 mmHg 79%
    12:00 -4°C° 0 mm 3 mps 747 mmHg 77%
    13:00 -4°C° 0 mm 4 mps 747 mmHg 76%
    14:00 -3°C° 0 mm 4 mps 747 mmHg 74%
    15:00 -3°C° 0 mm 4 mps 747 mmHg 76%
    16:00 -4°C° 0 mm 3 mps 747 mmHg 78%
    17:00 -4°C° 0 mm 3 mps 747 mmHg 80%
    18:00 -5°C° 0 mm 3 mps 747 mmHg 83%
    19:00 -5°C° 0 mm 3 mps 747 mmHg 85%
    20:00 -6°C° 0 mm 3 mps 747 mmHg 87%
    21:00 -6°C° 0 mm 3 mps 747 mmHg 87%
    22:00 -7°C° 0 mm 3 mps 747 mmHg 87%
    23:00 -7°C° 0 mm 3 mps 747 mmHg 87%

    Day after tomorrow, 21 February, Wednesday

    Time Temperature Precipitation Wind Pressure Humidity
    00:00 -7°C° 0 mm 3 mps 747 mmHg 87%
    01:00 -7°C° 0 mm 3 mps 747 mmHg 88%
    02:00 -8°C° 0 mm 3 mps 747 mmHg 88%
    03:00 -8°C° 0 mm 3 mps 747 mmHg 88%
    04:00 -8°C° 0 mm 3 mps 747 mmHg 88%
    05:00 -8°C° 0 mm 3 mps 746 mmHg 88%
    06:00 -8°C° 0 mm 3 mps 746 mmHg 88%
    07:00 -8°C° 0 mm 3 mps 746 mmHg 87%
    08:00 -8°C° 0 mm 3 mps 746 mmHg 87%
    09:00 -7°C° 0 mm 3 mps 746 mmHg 85%
    10:00 -6°C° 0 mm 3 mps 746 mmHg 83%
    11:00 -5°C° 0 mm 3 mps 746 mmHg 80%
    12:00 -4°C° 0 mm 3 mps 746 mmHg 79%
    13:00 -4°C° 0 mm 3 mps 746 mmHg 78%
    14:00 -2°C° 0 mm 3 mps 746 mmHg 76%
    15:00 -2°C° 0 mm 3 mps 746 mmHg 78%
    16:00 -2°C° 0 mm 3 mps 746 mmHg 81%
    17:00 -2°C° 0 mm 3 mps 746 mmHg 83%
    18:00 -4°C° 0 mm 3 mps 746 mmHg 85%
    19:00 -4°C° 0 mm 2 mps 746 mmHg 88%
    20:00 -4°C° 0 mm 2 mps 746 mmHg 90%
    21:00 -4°C° 0 mm 2 mps 746 mmHg 91%
    22:00 -5°C° 0 mm 2 mps 746 mmHg 91%
    23:00 -5°C° 0 mm 2 mps 746 mmHg 91%

    22 February, Thursday

    Time Temperature Precipitation Wind Pressure Humidity
    00:00 -5°C° 0 mm 2 mps 746 mmHg 92%
    01:00 -5°C° 0 mm 2 mps 746 mmHg 92%
    02:00 -6°C° 0 mm 3 mps 746 mmHg 92%
    03:00 -6°C° 0 mm 3 mps 746 mmHg 92%
    04:00 -6°C° 0 mm 2 mps 746 mmHg 93%
    05:00 -6°C° 0 mm 2 mps 746 mmHg 93%
    06:00 -7°C° 0 mm 3 mps 746 mmHg 93%
    07:00 -6°C° 0 mm 3 mps 746 mmHg 93%
    08:00 -6°C° 0 mm 3 mps 746 mmHg 92%
    09:00 -6°C° 0 mm 3 mps 746 mmHg 90%
    10:00 -5°C° 0 mm 3 mps 746 mmHg 88%
    11:00 -4°C° 0 mm 4 mps 746 mmHg 85%
    12:00 -4°C° 0 mm 4 mps 746 mmHg 83%
    13:00 -3°C° 0 mm 4 mps 746 mmHg 81%
    14:00 -3°C° 0 mm 4 mps 745 mmHg 79%
    15:00 -3°C° 0 mm 4 mps 745 mmHg 80%
    16:00 -3°C° 0 mm 4 mps 745 mmHg 81%
    17:00 -3°C° 0 mm 4 mps 745 mmHg 81%
    18:00 -3°C° 0 mm 4 mps 745 mmHg 83%
    19:00 -4°C° 0 mm 4 mps 745 mmHg 85%
    20:00 -4°C° 0 mm 4 mps 745 mmHg 87%
    21:00 -4°C° 0.1 mm 4 mps 745 mmHg 87%
    22:00 -5°C° 0.1 mm 4 mps 744 mmHg 88%
    23:00 -5°C° 0.1 mm 4 mps 744 mmHg 89%

    23 February, Friday

    Time Temperature Precipitation Wind Pressure Humidity
    00:00 -5°C° 0.2 mm 4 mps 744 mmHg 90%
    01:00 -5°C° 0.2 mm 3 mps 744 mmHg 91%
    02:00 -5°C° 0.2 mm 3 mps 743 mmHg 92%
    03:00 -5°C° 0.3 mm 3 mps 743 mmHg 92%
    04:00 -5°C° 0.3 mm 3 mps 743 mmHg 92%
    05:00 -5°C° 0.3 mm 3 mps 742 mmHg 93%
    06:00 -5°C° 0.3 mm 3 mps 742 mmHg 93%
    07:00 -5°C° 0.3 mm 3 mps 742 mmHg 93%
    08:00 -5°C° 0.3 mm 3 mps 742 mmHg 93%
    09:00 -5°C° 0.4 mm 3 mps 742 mmHg 92%
    10:00 -5°C° 0.4 mm 3 mps 742 mmHg 91%
    11:00 -5°C° 0.4 mm 3 mps 741 mmHg 90%
    12:00 -5°C° 0.3 mm 4 mps 741 mmHg 90%
    13:00 -5°C° 0.3 mm 4 mps 741 mmHg 89%
    14:00 -4°C° 0.3 mm 4 mps 741 mmHg 88%
    15:00 -5°C° 0.2 mm 4 mps 741 mmHg 88%
    16:00 -6°C° 0.2 mm 5 mps 740 mmHg 88%
    17:00 -7°C° 0.2 mm 5 mps 740 mmHg 89%
    18:00 -7°C° 0.2 mm 5 mps 740 mmHg 89%
    19:00 -8°C° 0.2 mm 5 mps 740 mmHg 89%
    20:00 -10°C° 0.2 mm 5 mps 740 mmHg 89%
    21:00 -10°C° 0.2 mm 5 mps 740 mmHg 89%
    22:00 -10°C° 0.2 mm 5 mps 740 mmHg 88%
    23:00 -11°C° 0.2 mm 5 mps 740 mmHg 88%

    24 February, Saturday

    Time Temperature Precipitation Wind Pressure Humidity
    00:00 -11°C° 0.1 mm 5 mps 740 mmHg 88%
    01:00 -12°C° 0.1 mm 6 mps 739 mmHg 87%
    02:00 -12°C° 0.1 mm 6 mps 739 mmHg 87%
    03:00 -14°C° 0.1 mm 6 mps 739 mmHg 86%
    04:00 -14°C° 0.1 mm 6 mps 739 mmHg 86%
    05:00 -15°C° 0.1 mm 6 mps 739 mmHg 86%
    06:00 -15°C° 0.1 mm 6 mps 739 mmHg 86%
    07:00 -15°C° 0.1 mm 6 mps 739 mmHg 86%
    08:00 -15°C° 0.1 mm 6 mps 739 mmHg 86%
    09:00 -15°C° 0.1 mm 6 mps 738 mmHg 84%
    10:00 -15°C° 0.1 mm 6 mps 738 mmHg 83%
    11:00 -15°C° 0.1 mm 7 mps 738 mmHg 82%
    12:00 -15°C° 0.1 mm 7 mps 738 mmHg 81%
    13:00 -14°C° 0.1 mm 7 mps 738 mmHg 80%
    14:00 -14°C° 0.1 mm 7 mps 738 mmHg 79%
    15:00 -14°C° 0.1 mm 6 mps 737 mmHg 79%
    16:00 -14°C° 0.1 mm 6 mps 737 mmHg 79%
    17:00 -14°C° 0.1 mm 6 mps 737 mmHg 79%
    18:00 -13°C° 0 mm 5 mps 737 mmHg 80%
    19:00 -14°C° 0 mm 5 mps 737 mmHg 82%
    20:00 -14°C° 0 mm 5 mps 737 mmHg 83%
    21:00 -14°C° 0 mm 4 mps 737 mmHg 83%
    22:00 -14°C° 0 mm 4 mps 737 mmHg 84%
    23:00 -15°C° 0 mm 4 mps 737 mmHg 85%
    Show more